FREGAT DEB, 45879

Orbit data source: Space-Track

FREGAT DEB, 45879 is space debris in LEO originally from a launch on Mon, 18 Jul 2011 UTC launched from the Tyuratam Missile And Space Complex (TTMTR). Debris objects in space refer to the collection of defunct objects orbiting the Earth. Examples of debris include non-operational satellites, rocket bodies, and fragments generated from explosions, collisions, or faulty payload assembly.

Loading next visibility...
FREGAT DEB details
Identifier
45879, 2011-037CY
Orbit
LEO
Last TLE update3 weeks ago
Origin
Flag of CISVVKO VKS (CIS)
ManufacturerLavochkin
MissionSpacecraft
Bus & MotorUnknown
MassUnknown
Launch date (UTC)
2011-07-18 (13 years ago)
Launch vehicleUnknown
Launch site
Tyuratam Missile And Space Complex (TTMTR)
Object type
Payload
Rocket body
Debris
Shape & HBRUnknown
Radar Cross SectionSmall (<0.1 m²)

Expand to show TLE details & history

TLE from 3 weeks ago
0 FREGAT DEB
1 45879U 11037CY  24324.75185606  .00123368  00000-0  40211+0 0  9998
2 45879  50.8370 167.9886 1365995 173.5692 188.4809 11.30231915166843
Epoch: 2024-11-19T18:02Z
Definitive object data (Epoch: 2024-11-19T18:02:40.363Z)
Latitude0.00002°
Longitude-161.93736°
Altitude3,145.703 km
Speed6.017 km/s
True Right ascension11h 11m 57s
True Declination0° 00' 00"
Sunlit
Object was in daylight at TLE epoch
Visualization TLE readout
Latitude46.09844°
Longitude-166.13688°
Altitude2,952.905 km
Speed6.15 km/s
Apparent Right ascension12h 47m 19s
Apparent Declination15° 23' 19"
Sunlit
Object is in daylight
Visualization observer readout
Local Sidereal Time03:21:05
Azimuth41.061° NE
Elevation-24.137°
Doppler factor1
Orbital elements
Apogee altitude3,155.501 km
Perigee altitude863.946 km
Semi-major axis8,387.861 km
Eccentricity0.1365995
Inclination50.837°
RAAN167.9886°
Arg. of periapsis173.5692°
True anomaly186.50777°
Mean anomaly188.4809°
Eccentric anomaly187.46418°
Mean motion2.82531 °/min
BSTAR0.40211
Orbital period127.42 mins
Loading maneuver chart data...
Loading historical data...
Loading historical data...
Loading historical data...
Loading historical data...
Loading historical data...
Loading historical data...
Loading historical data...

FREGAT DEB Visibility forecast

Observer location: undefined°, undefined

Span
Click to sort rows by Start time (UTC) header in descending order
Start Az.
Max El. time (UTC)
Max El. Az.
Max El.
End time (UTC)
End Az.
28 mins2024-12-14 08:33:09.075Z175.845° S2024-12-14 08:47:09.075Z119.493° SE30.204°2024-12-14 09:01:09.075Z64.095° ENE
32 mins2024-12-14 10:45:09.075Z223.659° SW2024-12-14 11:01:09.075Z146.021° SSE44.808°2024-12-14 11:17:09.075Z55.361° ENE
31 mins2024-12-14 13:01:09.075Z265.094° W2024-12-14 13:18:09.075Z342.639° N41.192°2024-12-14 13:32:09.075Z63.108° ENE
26 mins2024-12-14 15:21:09.075Z295.751° NW2024-12-14 15:36:09.075Z13.373° NNE40.29°2024-12-14 15:47:09.075Z89.632° E
22 mins2024-12-14 17:38:09.075Z304.601° NW2024-12-14 17:51:09.075Z244.798° WSW44.601°2024-12-14 18:00:09.075Z135.484° SSE
12 mins2024-12-14 19:56:09.075Z285.976° WNW2024-12-14 20:03:09.075Z244.26° WSW20.316°2024-12-14 20:08:09.075Z205.79° SW
|